Location: Leipzig
(51.3392°N, 12.3528°E)
Time: 23:47:43
(UTC+01:00)

ISS - Pass Details

Date: 12 January 2018
Orbit: 402 x 407 km, 51.6° (Epoch: 20 January)

Event Time Altitude Azimuth Distance (km) Brightness Sun altitude
Exits shadow 04:51:23 13° 105° (ESE) 1,322 -0.5 -30.3°
Drops below altitude 10° 04:51:44 10° 104° (ESE) 1,466 -0.2 -30.2°
Sets 04:53:49 0° 104° (ESE) 2,326 1.1 -29.9°
